| time (UTC) | temp F | wind direction | speed knots | gust knots | rain 1hr in | rain 24hr in | rain mn in | humidity % | barometer mb |
| 20260503053039 | 81 | 136 | 9.6 | 13.0 | 0.00 | 0.00 | 0.00 | 87 | 206.0 |
| 20260503051539 | 81 | 132 | 9.6 | 14.8 | 0.00 | 0.00 | 0.00 | 87 | 206.0 |
| 20260503050044 | 81 | 136 | 9.6 | 13.9 | 0.00 | 0.00 | 0.00 | 88 | 206.0 |
| 20260503044542 | 81 | 127 | 8.7 | 11.3 | 0.00 | 0.00 | 0.00 | 90 | 206.0 |
| 20260503043050 | 81 | 124 | 8.7 | 12.2 | 0.00 | 0.00 | 0.00 | 92 | 206.0 |
| 20260503041542 | 80 | 122 | 9.6 | 12.2 | 0.00 | 0.00 | 0.00 | 90 | 206.0 |
| 20260503040055 | 80 | 120 | 9.6 | 12.2 | 0.00 | 0.00 | 0.00 | 90 | 206.0 |
| 20260503034547 | 81 | 129 | 9.6 | 13.9 | 0.00 | 0.00 | 0.00 | 90 | 206.0 |
| 20260503033046 | 80 | 119 | 11.3 | 13.0 | 0.00 | 0.00 | 0.00 | 89 | 206.0 |
| 20260503031543 | 81 | 115 | 10.4 | 13.9 | 0.00 | 0.00 | 0.00 | 90 | 206.0 |
| 20260503030040 | 81 | 108 | 11.3 | 14.8 | 0.00 | 0.00 | 0.00 | 90 | 206.0 |
| 20260503024537 | 80 | 116 | 11.3 | 13.9 | 0.00 | 0.00 | 0.00 | 90 | 206.0 |
| 20260503023055 | 80 | 116 | 11.3 | 13.0 | 0.00 | 0.00 | 0.00 | 90 | 206.0 |
| 20260503021550 | 81 | 102 | 9.6 | 13.9 | 0.00 | 0.00 | 0.00 | 91 | 206.0 |
| 20260503020049 | 81 | 96 | 10.4 | 14.8 | 0.00 | 0.00 | 0.00 | 90 | 206.0 |
| 20260503014541 | 81 | 110 | 10.4 | 14.8 | 0.00 | 0.00 | 0.00 | 90 | 206.0 |
| 20260503013040 | 81 | 105 | 11.3 | 14.8 | 0.00 | 0.00 | 0.00 | 89 | 206.0 |
| 20260503011535 | 82 | 105 | 10.4 | 14.8 | 0.00 | 0.00 | 0.00 | 90 | 206.0 |
| 20260503010043 | 82 | 120 | 12.2 | 15.6 | 0.00 | 0.00 | 0.00 | 88 | 206.0 |
| 20260503004555 | 81 | 127 | 12.2 | 16.5 | 0.00 | 0.00 | 0.00 | 87 | 206.0 |
| 20260503003100 | 82 | 135 | 13.0 | 16.5 | 0.00 | 0.00 | 0.00 | 86 | 206.0 |
| 20260503001538 | 82 | 134 | 13.0 | 16.5 | 0.00 | 0.00 | 0.00 | 86 | 206.0 |
| 20260503000043 | 82 | 146 | 13.9 | 17.4 | 0.00 | 0.00 | 0.00 | 87 | 206.0 |
| 20260502234541 | 82 | 141 | 13.0 | 17.4 | 0.00 | 0.00 | 0.00 | 87 | 206.0 |
| 20260502233040 | 82 | 129 | 13.0 | 16.5 | 0.00 | 0.00 | 0.00 | 86 | 206.0 |
| 20260502231548 | 82 | 158 | 12.2 | 16.5 | 0.00 | 0.00 | 0.00 | 86 | 206.0 |
| 20260502230048 | 82 | 141 | 12.2 | 16.5 | 0.00 | 0.00 | 0.00 | 87 | 206.0 |
| 20260502224545 | 83 | 131 | 11.3 | 14.8 | 0.00 | 0.00 | 0.00 | 84 | 206.0 |
| 20260502223041 | 83 | 128 | 10.4 | 14.8 | 0.00 | 0.00 | 0.00 | 84 | 206.0 |
| 20260502221538 | 84 | 147 | 12.2 | 15.6 | 0.00 | 0.00 | 0.00 | 82 | 206.0 |
| 20260502220037 | 84 | 149 | 12.2 | 15.6 | 0.00 | 0.00 | 0.00 | 84 | 206.0 |
| 20260502214543 | 83 | 126 | 13.0 | 15.6 | 0.00 | 0.00 | 0.00 | 83 | 206.0 |
| 20260502213058 | 84 | 118 | 12.2 | 15.6 | 0.00 | 0.00 | 0.00 | 83 | 206.0 |
| 20260502211538 | 85 | 147 | 11.3 | 14.8 | 0.00 | 0.00 | 0.00 | 82 | 206.0 |
| 20260502210038 | 85 | 148 | 10.4 | 14.8 | 0.00 | 0.00 | 0.00 | 83 | 206.0 |
| 20260502204546 | 84 | 136 | 11.3 | 15.6 | 0.00 | 0.00 | 0.00 | 84 | 206.0 |
| 20260502203045 | 83 | 148 | 11.3 | 15.6 | 0.00 | 0.00 | 0.00 | 83 | 206.0 |
| 20260502201541 | 83 | 158 | 12.2 | 15.6 | 0.00 | 0.00 | 0.00 | 85 | 206.0 |
| 20260502200100 | 83 | 163 | 12.2 | 16.5 | 0.00 | 0.00 | 0.00 | 83 | 206.0 |
| 20260502194543 | 83 | 149 | 13.0 | 16.5 | 0.00 | 0.00 | 0.00 | 84 | 206.0 |
| 20260502193042 | 83 | 152 | 12.2 | 14.8 | 0.00 | 0.00 | 0.00 | 85 | 206.0 |
| 20260502191543 | 83 | 133 | 11.3 | 13.9 | 0.00 | 0.00 | 0.00 | 85 | 206.0 |
| 20260502190043 | 83 | 139 | 12.2 | 15.6 | 0.00 | 0.00 | 0.00 | 84 | 206.0 |
| 20260502184535 | 83 | 153 | 12.2 | 14.8 | 0.00 | 0.00 | 0.00 | 85 | 206.0 |
| 20260502183048 | 83 | 153 | 12.2 | 16.5 | 0.00 | 0.00 | 0.00 | 84 | 206.0 |
| 20260502181544 | 83 | 131 | 12.2 | 16.5 | 0.00 | 0.00 | 0.00 | 84 | 206.0 |
| 20260502163036 | 83 | 124 | 11.3 | 14.8 | 0.00 | 0.00 | 0.00 | 84 | 206.0 |
| 20260502161548 | 83 | 150 | 11.3 | 16.5 | 0.00 | 0.00 | 0.00 | 84 | 206.0 |
| 20260502151535 | 82 | 127 | 11.3 | 14.8 | 0.00 | 0.00 | 0.00 | 86 | 206.0 |
| 20260502123043 | 80 | 115 | 10.4 | 14.8 | 0.00 | 0.00 | 0.00 | 90 | 206.0 |
| 20260502121543 | 80 | 118 | 12.2 | 16.5 | 0.00 | 0.00 | 0.00 | 91 | 206.0 |
| 20260502114541 | 79 | 101 | 10.4 | 13.9 | 0.00 | 0.00 | 0.00 | 91 | 206.0 |
| 20260502113046 | 79 | 100 | 10.4 | 14.8 | 0.00 | 0.00 | 0.00 | 92 | 206.0 |
| 20260502111537 | 79 | 108 | 13.0 | 16.5 | 0.00 | 0.00 | 0.00 | 92 | 206.0 |
| 20260502110036 | 79 | 95 | 12.2 | 16.5 | 0.00 | 0.00 | 0.00 | 92 | 206.0 |
| 20260502104544 | 78 | 97 | 12.2 | 15.6 | 0.00 | 0.00 | 0.00 | 93 | 206.0 |
| 20260502103102 | 78 | 91 | 12.2 | 14.8 | 0.00 | 0.00 | 0.00 | 94 | 206.0 |
| 20260502101548 | 78 | 104 | 11.3 | 14.8 | 0.00 | 0.00 | 0.00 | 94 | 206.0 |
| 20260502070046 | 79 | 128 | 11.3 | 13.9 | 0.00 | 0.00 | 0.00 | 91 | 206.0 |
| 20260502064544 | 79 | 120 | 11.3 | 14.8 | 0.00 | 0.00 | 0.00 | 91 | 206.0 |
| 20260502063050 | 79 | 124 | 13.0 | 14.8 | 0.00 | 0.00 | 0.00 | 91 | 206.0 |
| 20260502061542 | 79 | 134 | 12.2 | 16.5 | 0.00 | 0.00 | 0.00 | 90 | 206.0 |
| 20260502060039 | 79 | 114 | 13.0 | 15.6 | 0.00 | 0.00 | 0.00 | 90 | 206.0 |
| 20260502054552 | 79 | 114 | 13.0 | 16.5 | 0.00 | 0.00 | 0.00 | 89 | 206.0 |